Date String (YYYY-MM-DD hh:mm:ss) UTC,Instrument flags,Ambient pressure (hPa),Sample flow (lpm),Bypass flow (lpm),Sample temperature (°C),Ambient temperature (°C),ASC tube jacket temperature (°C),LED temperature (°C),Box temperature (°C),Sample RH (%),Span deviation,Mass concentration (μg/m³),Mass concentration (μg/m³),Mass concentration (μg/m³)
DateTimeUTC,F1_M11,P_M11,Q1_M11,Q2_M11,T1_M11,T2_M11,T3_M11,T4_M11,T5_M11,U1_M11,ZSPAN_M11,X0_M11,X2_M11,X1_M11
2022-11-11 02:00:00,,0826.1,5.00,0.00,22.6,20.6,00.0,31.5,24.4,11.1,-000.6,0018.83,0007.39,0006.13
2022-11-11 02:01:00,,0826.1,5.01,0.00,22.5,20.5,00.0,31.5,24.3,11.2,-000.7,0019.31,0007.44,0006.13
2022-11-11 02:02:00,,0826.2,5.01,0.00,22.5,20.4,00.0,31.5,24.2,11.2,-000.7,0019.05,0007.43,0006.15
2022-11-11 02:03:00,,0826.2,5.00,0.00,22.4,20.4,00.0,31.5,24.2,11.2,-000.6,0018.70,0007.43,0006.16
2022-11-11 02:04:00,,0826.3,4.99,0.00,22.4,20.3,00.0,31.4,24.2,11.2,-000.5,0020.16,0007.45,0006.16
2022-11-11 02:05:00,,0826.3,4.99,0.00,22.4,20.3,00.0,31.4,24.1,11.3,-000.3,0020.17,0007.43,0006.14
2022-11-11 02:06:00,,0826.4,5.01,0.00,22.3,20.2,00.0,31.4,24.1,11.3,-000.1,0019.74,0007.38,0006.09
2022-11-11 02:07:00,,0826.2,5.01,0.00,22.3,20.2,00.0,31.3,24.1,11.3,-000.3,0020.09,0007.33,0006.05
2022-11-11 02:08:00,,0826.3,4.99,0.00,22.3,20.2,00.0,31.3,24.0,11.4,-000.5,0020.29,0007.31,0006.00
2022-11-11 02:09:00,,0826.2,5.00,0.00,22.2,20.1,00.0,31.3,24.0,11.4,0000.1,0020.00,0007.30,0006.01
2022-11-11 02:10:00,,0826.3,5.01,0.00,22.2,20.1,00.0,31.2,24.0,11.4,0001.7,0018.87,0007.24,0006.00
2022-11-11 02:11:00,,0826.3,5.00,0.00,22.2,20.1,00.0,31.2,23.9,11.4,0002.1,0019.01,0007.21,0006.01
2022-11-11 02:12:00,,0826.2,4.99,0.00,22.1,20.0,00.0,31.2,23.9,11.4,0002.2,0019.36,0007.24,0006.02
2022-11-11 02:13:00,,0826.2,5.00,0.00,22.1,20.0,00.0,31.1,23.8,11.4,0002.6,0019.72,0007.23,0006.01
2022-11-11 02:14:00,,0826.2,5.00,0.00,22.1,19.9,00.0,31.1,23.8,11.4,0002.9,0019.92,0007.22,0006.00
2022-11-11 02:15:00,,0826.2,5.01,0.00,22.0,20.0,00.0,31.1,23.8,11.4,0002.8,0018.54,0007.21,0005.98
2022-11-11 02:16:00,,0826.4,5.00,0.00,22.0,20.0,00.0,31.0,23.8,11.4,0002.8,0018.37,0007.18,0005.97
2022-11-11 02:17:00,,0826.5,4.99,0.00,22.0,20.1,00.0,31.0,23.8,11.4,0002.7,0018.65,0007.19,0005.98
2022-11-11 02:18:00,,0826.5,5.00,0.00,22.0,20.2,00.0,31.0,23.8,11.3,0002.3,0018.47,0007.18,0005.98
2022-11-11 02:19:00,,0826.5,5.01,0.00,22.0,20.2,00.0,31.0,23.8,11.3,0002.4,0018.50,0007.19,0005.99
2022-11-11 02:20:00,,0826.6,5.00,0.00,22.0,20.3,00.0,31.0,23.9,11.3,0002.2,0018.85,0007.21,0005.98
2022-11-11 02:21:00,,0826.6,5.00,0.00,22.0,20.3,00.0,30.9,23.9,11.3,0001.3,0019.26,0007.22,0005.97
2022-11-11 02:22:00,,0826.5,5.01,0.00,22.0,20.3,00.0,30.9,23.9,11.3,0001.4,0019.96,0007.19,0005.96
2022-11-11 02:23:00,,0826.5,4.98,0.00,22.0,20.3,00.0,30.9,23.9,11.3,0001.3,0019.47,0007.16,0005.96
2022-11-11 02:24:00,,0826.5,5.02,0.00,22.0,20.3,00.0,30.9,23.9,11.3,0001.1,0019.42,0007.18,0005.98
2022-11-11 02:25:00,,0826.5,4.99,0.00,22.0,20.3,00.0,30.9,23.9,11.3,0001.0,0019.74,0007.20,0005.97
2022-11-11 02:26:00,,0826.5,5.00,0.00,22.0,20.4,00.0,30.9,23.9,11.3,0001.2,0020.02,0007.18,0005.97
2022-11-11 02:27:00,,0826.5,5.00,0.00,22.0,20.4,00.0,30.8,23.9,11.3,0001.4,0019.81,0007.14,0005.95
2022-11-11 02:28:00,,0826.5,4.98,0.00,22.0,20.5,00.0,30.8,23.9,11.2,0001.3,0020.48,0007.07,0005.93
2022-11-11 02:29:00,,0826.5,5.00,0.00,22.0,20.6,00.0,30.8,23.9,11.2,0001.2,0020.95,0007.03,0005.91
2022-11-11 02:30:00,,0826.5,5.00,0.00,22.1,20.6,00.0,30.8,24.0,11.2,0001.8,0021.38,0007.00,0005.90
2022-11-11 02:31:00,,0826.6,5.01,0.00,22.1,20.6,00.0,30.8,24.0,11.2,0002.0,0021.32,0006.97,0005.90
2022-11-11 02:32:00,,0826.7,5.00,0.00,22.1,20.6,00.0,30.8,24.0,11.2,0002.4,0020.97,0006.96,0005.91
2022-11-11 02:33:00,,0826.7,4.99,0.00,22.1,20.6,00.0,30.8,24.0,11.2,0002.4,0019.45,0006.95,0005.90
2022-11-11 02:34:00,,0826.6,5.00,0.00,22.1,20.6,00.0,30.8,24.0,11.2,0002.3,0018.98,0006.89,0005.87
2022-11-11 02:35:00,,0826.7,5.00,0.00,22.1,20.7,00.0,30.8,24.0,11.2,0002.4,0018.19,0006.80,0005.85
2022-11-11 02:36:00,,0826.7,5.01,0.00,22.1,20.7,00.0,30.8,24.0,11.2,0002.5,0017.48,0006.76,0005.84
2022-11-11 02:37:00,,0826.6,5.01,0.00,22.1,20.6,00.0,30.9,24.0,11.2,0001.7,0017.01,0006.71,0005.83
2022-11-11 02:38:00,,0826.6,4.98,0.00,22.1,20.6,00.0,30.9,24.0,11.2,0001.0,0017.17,0006.73,0005.84
2022-11-11 02:39:00,,0826.5,5.01,0.00,22.1,20.5,00.0,30.9,23.9,11.2,0000.2,0016.51,0006.78,0005.86
2022-11-11 02:40:00,,0826.5,4.98,0.00,22.1,20.4,00.0,30.9,23.9,11.3,0000.4,0015.72,0006.80,0005.87
2022-11-11 02:41:00,,0826.5,5.02,0.00,22.0,20.3,00.0,30.9,23.9,11.3,0000.4,0014.84,0006.81,0005.86
2022-11-11 02:42:00,,0826.5,4.99,0.00,22.0,20.2,00.0,30.9,23.8,11.3,-000.0,0013.53,0006.79,0005.86
2022-11-11 02:43:00,,0826.5,5.01,0.00,22.0,20.1,00.0,30.8,23.8,11.3,-000.2,0012.93,0006.76,0005.86
2022-11-11 02:44:00,,0826.5,4.99,0.00,21.9,20.0,00.0,30.8,23.7,11.4,-000.3,0012.87,0006.74,0005.87
2022-11-11 02:45:00,,0826.6,5.00,0.00,21.9,20.2,00.0,30.8,23.8,11.4,-000.2,0014.69,0006.77,0005.89
2022-11-11 02:46:00,,0826.6,5.01,0.00,22.0,21.1,00.0,30.7,23.9,11.4,-000.2,0015.63,0006.83,0005.92
2022-11-11 02:47:00,,0826.7,5.00,0.00,22.1,21.9,00.0,30.7,24.1,11.3,0000.2,0017.04,0006.88,0005.95
2022-11-11 02:48:00,,0826.7,5.00,0.00,22.1,21.9,00.0,30.8,24.2,11.3,0001.3,0017.10,0006.93,0006.00
2022-11-11 02:49:00,,0826.7,5.00,0.00,22.1,21.5,00.0,30.8,24.1,11.3,0001.3,0017.07,0006.97,0006.06
2022-11-11 02:50:00,,0826.6,5.00,0.00,22.1,21.2,00.0,30.9,24.1,11.3,0001.9,0017.03,0007.06,0006.11
2022-11-11 02:51:00,,0826.7,5.00,0.00,22.1,20.9,00.0,30.9,24.0,11.3,0001.9,0017.03,0007.15,0006.17
2022-11-11 02:52:00,,0826.7,5.01,0.00,22.1,20.8,00.0,30.9,24.0,11.3,0001.9,0017.23,0007.23,0006.25
2022-11-11 02:53:00,,0826.7,5.00,0.00,22.1,20.6,00.0,30.9,23.9,11.4,0002.2,0017.60,0007.33,0006.34
2022-11-11 02:54:00,,0826.7,4.99,0.00,22.0,20.5,00.0,30.9,23.9,11.4,0002.2,0018.05,0007.44,0006.43
2022-11-11 02:55:00,,0826.7,4.99,0.00,22.0,20.4,00.0,30.9,23.9,11.4,0002.2,0018.65,0007.58,0006.52
2022-11-11 02:56:00,,0826.8,5.00,0.00,22.0,20.4,00.0,30.9,23.9,11.4,0001.9,0017.08,0007.62,0006.60
2022-11-11 02:57:00,,0826.8,5.01,0.00,22.0,20.3,00.0,30.9,23.8,11.4,0001.8,0016.98,0007.71,0006.67
2022-11-11 02:58:00,,0826.8,5.01,0.00,22.0,20.2,00.0,30.8,23.8,11.5,0001.9,0017.22,0007.77,0006.73
2022-11-11 02:59:00,,0826.8,4.99,0.00,21.9,20.2,00.0,30.8,23.7,11.5,0001.9,0017.18,0007.83,0006.78
